Torna al catalogo

STARLINK-35212

AttivoComunicazioniVLEO
NORAD 65496·PAYLOAD·🇺🇸 United States

Lanciato Sep 5, 2025 da Cape Canaveral Space Force Station

Loading…

Prossimi Passaggi (prossime 24 ore)

TLE

AggiornatoSource: CelesTrak SupGP

Epoca: Sep 15, 2026, 03:57 UTC

1 65496C 25198E   26258.16506944 -.00004509  00000+0 -13328-3 0  2580
2 65496  53.1560 108.3971 0001326  88.2704 318.4110 15.34376338    14

Traccia STARLINK-35212 in tempo reale con AllMySat

Download on the App Store